Eagle, AK

3:02 PM AKDT on July 25, 2017 (GMT -0800)
Eagle

Weather History for PAEG - March, 2012

Change the Weather History Date:

Monday, March 26, 2012

  Actual Average (PABN) Record (PABN)
Temperature  
Mean Temperature 13 °F -  
Max Temperature 32 °F 22 °F 39 °F (1997)
Min Temperature -4 °F 9 °F -5 °F (2007)
Degree Days  
Heating Degree Days 52    
Moisture  
Dew Point 7 °F    
Average Humidity 72    
Maximum Humidity 88    
Minimum Humidity 50    
Precipitation  
Precipitation 0.00 in - - ()
Sea Level Pressure  
Sea Level Pressure 29.70 in    
Wind  
Wind Speed 1 mph (SE)    
Max Wind Speed 10 mph    
Max Gust Speed -    
Visibility 8 miles    
Events Snow    
Averages and records for this station are not official NWS values.
T = Trace of Precipitation, MM = Missing Value Source: NWS Daily Summary

Daily Weather History Graph

Daily Weather History Graph

Search for Another Location

Airport or City:

Trip Planner

Search our weather history database for the weather conditions in past years. The results will help you decide how hot, cold, wet, or windy it might be!

Date:

Astronomy

Mar. 26, 2012 Rise Set
Actual Time 7:00 AM AKDT 8:01 PM AKDT
Civil Twilight 6:10 AM AKDT 8:51 PM AKDT
Nautical Twilight 5:08 AM AKDT 9:54 PM AKDT
Astronomical Twilight 3:50 AM AKDT 11:13 PM AKDT
Moon 7:06 AM AKDT (3/26) 1:06 AM AKDT (3/26)
Length of Visible Light 14h 40m
Length of Day
13h 00m
Waxing Crescent, 15% of the Moon is Illuminated
Mar 26
Waxing Crescent
Mar 30
First Quarter
Apr 6
Full
Apr 13
Last Quarter
Apr 20
New

Hourly Weather History & Observations

Time (AKDT) Temp. Windchill Dew Point Humidity Pressure Visibility Wind Dir Wind Speed Gust Speed Precip Events Conditions
12:12 AM 17.6 °F - 10.4 °F 73% 29.70 in 2.5 mi Calm Calm - 0.00 in Snow Light Snow
12:26 AM 17.6 °F - 10.4 °F 73% 29.70 in 4.0 mi Calm Calm - 0.00 in Snow Light Snow
12:49 AM 17.6 °F - 10.4 °F 73% 29.70 in 2.5 mi Calm Calm - 0.00 in Snow Light Snow
12:53 AM 17.1 °F - 10.9 °F 77% 29.75 in 2.0 mi Calm Calm - 0.00 in Snow Light Snow
1:10 AM 17.6 °F - 12.2 °F 79% 29.70 in 3.0 mi Calm Calm - 0.00 in Snow Light Snow
1:37 AM 17.6 °F - 12.2 °F 79% 29.70 in 2.5 mi Calm Calm - 0.00 in Snow Light Snow
1:53 AM 18.0 °F - 14.0 °F 84% 29.74 in 2.0 mi Calm Calm - 0.00 in Snow Light Snow
2:48 AM 17.6 °F - 12.2 °F 79% 29.70 in 3.0 mi Calm Calm - 0.00 in Snow Light Snow
2:53 AM 17.1 °F - 12.9 °F 84% 29.74 in 3.0 mi Calm Calm - 0.00 in Snow Light Snow
3:53 AM 16.0 °F 10.4 °F 12.9 °F 88% 29.74 in 4.0 mi NW 3.5 mph - 0.00 in Snow Light Snow
4:53 AM 8.1 °F - 3.9 °F 83% 29.75 in 9.0 mi Calm Calm - 0.00 in   Overcast
5:26 AM 5.0 °F - 1.4 °F 85% 29.70 in 10.0 mi Calm Calm - N/A   Mostly Cloudy
5:41 AM 3.2 °F - -0.4 °F 85% 29.70 in 10.0 mi Calm Calm - N/A   Scattered Clouds
5:53 AM 1.9 °F - -2.0 °F 83% 29.75 in 10.0 mi Calm Calm - N/A   Clear
6:53 AM -2.9 °F - -7.1 °F 82% 29.75 in 10.0 mi Calm Calm - N/A   Clear
7:53 AM -4.0 °F - -9.0 °F 79% 29.76 in 10.0 mi Calm Calm - N/A   Clear
8:51 AM -0.4 °F - -5.8 °F 78% 29.70 in 10.0 mi Calm Calm - N/A   Scattered Clouds
8:53 AM -0.9 °F - -6.0 °F 79% 29.76 in 10.0 mi Calm Calm - N/A   Scattered Clouds
9:05 AM 1.4 °F - -2.2 °F 85% 29.70 in 10.0 mi Calm Calm - N/A   Mostly Cloudy
9:21 AM 5.0 °F - -0.4 °F 78% 29.69 in 10.0 mi Calm Calm - N/A   Overcast
9:53 AM 9.0 °F - 3.0 °F 77% 29.74 in 8.0 mi Calm Calm - N/A   Overcast
10:05 AM 10.4 °F - 3.2 °F 73% 29.68 in 10.0 mi Calm Calm - N/A   Overcast
10:15 AM 12.2 °F - 3.2 °F 67% 29.68 in 10.0 mi Calm Calm - N/A   Mostly Cloudy
10:24 AM 12.2 °F - 5.0 °F 73% 29.68 in 10.0 mi Calm Calm - N/A   Scattered Clouds
10:53 AM 15.1 °F - 6.1 °F 68% 29.73 in 10.0 mi Calm Calm - N/A   Clear
11:53 AM 19.9 °F - 12.0 °F 71% 29.71 in 10.0 mi Calm Calm - N/A   Mostly Cloudy
12:21 PM 26.6 °F 16.8 °F 14.0 °F 59% 29.65 in 10.0 mi SE 10.4 mph - N/A   Scattered Clouds
12:53 PM 27.0 °F 20.5 °F 12.9 °F 56% 29.69 in 10.0 mi Variable 5.8 mph - N/A   Partly Cloudy
1:53 PM 28.9 °F 22.8 °F 12.9 °F 51% 29.68 in 10.0 mi Variable 5.8 mph - N/A   Clear
2:53 PM 28.9 °F 21.9 °F 12.9 °F 51% 29.68 in 10.0 mi SSE 6.9 mph - N/A   Scattered Clouds
3:53 PM 30.0 °F 23.2 °F 14.0 °F 51% 29.66 in 10.0 mi ESE 6.9 mph - N/A   Scattered Clouds
4:53 PM 30.9 °F 23.5 °F 14.0 °F 50% 29.65 in 10.0 mi SE 8.1 mph - N/A   Mostly Cloudy
5:53 PM 30.9 °F 25.2 °F 14.0 °F 50% 29.65 in 10.0 mi SSE 5.8 mph - N/A   Partly Cloudy
6:53 PM 30.0 °F 25.2 °F 14.0 °F 51% 29.65 in 10.0 mi Variable 4.6 mph - N/A   Clear
7:53 PM 28.0 °F - 12.9 °F 53% 29.65 in 10.0 mi Calm Calm - N/A   Clear
8:53 PM 23.0 °F - 12.0 °F 63% 29.65 in 10.0 mi Calm Calm - N/A   Clear
9:53 PM 16.0 °F - 7.0 °F 68% 29.65 in 10.0 mi Calm Calm - N/A   Clear
10:53 PM 12.9 °F - 6.1 °F 74% 29.65 in 10.0 mi Calm Calm - N/A   Clear
11:53 PM 7.0 °F - 3.0 °F 84% 29.65 in 10.0 mi Calm Calm - N/A   Clear